Location: Borgo
(42.3939°N, 9.2791°E)
Time: 21:36:12
(UTC+00:00)

USA 234 - Pass Details

Date: 24 January 2021
Orbit: 1100 x 1107 km, 123.0° (Epoch: 01 March)

Event Time Altitude Azimuth Distance (km) Brightness Sun altitude
Exits shadow 19:16:49 35° 6° (N) 1,711 4.1 -31.3°
Drops below altitude 10° 19:21:46 10° 319° (NW) 2,966 6.0 -32.2°
Sets 19:24:27 0° 312° (NW) 3,926 6.8 -32.7°
